FENGYUN 1C DEB

Satellite information

Favourite Embed

Satellite Type and Status

DEBRISIN ORBIT

Key statistics

Satellite FENGYUN 1C DEB at a glance.

Uptime

9556

Days in orbit

Revolutions

≈ 14.1

Per day

Orbit

SSO

Sun Synchronous Orbit

Inclination

98.7

Latest

Satellite identification and parameters

Extended collection of information and parameters for FENGYUN 1C DEB.

Object identification

Identified? True

Debris? True

Object name: FENGYUN 1C DEB

International designator: 1999-025DZB

Object number (NORAD): 36681

Object ID (CCSDS): 36681

Country: PEOPLES REPUBLIC OF CHINA (PRC)

Current information (Y/N): Y

RCS size: SMALL

Orbital parameters

Period: 102.139 minutes

Inclination: 98.6913 deg

SMA: 7238.051 km

Apoapsis: 893.615 km

Periapsis: 826.217 km

RAAN: 189.2341 deg

Eccentricy: 0.0046558

Argument of periapsis: 86.8124 deg

Mean anomaly: 273.8372 deg

Mean motion: 14.09841537 rev/day

Mean motion (dot): 0.00000746 rev/day2

B* drag term: 0.00044346 1/REarth

Two-line elements (TLE)

Creation date: July 4, 2025, 6:39 p.m.

Reference frame: TEME

Reference center: EARTH

Epoch: July 4, 2025, 5:50 a.m. UTC

TLE line 0: 0 FENGYUN 1C DEB

TLE line 1: 1 36681U 99025DZB 25185.24332150 .00000746 00000-0 44346-3 0 9991

TLE line 2: 2 36681 98.6913 189.2341 0046558 86.8124 273.8372 14.09841537704822

Live tracking on map

Real-time ground track for satellite FENGYUN 1C DEB.

In-orbit conjunctions

A list of the most updated potential collisions computed for object FENGYUN 1C DEB.

Target Orbit TCA Probability of collision Miss distance Type
SS 1 LEO 2025-05-02 02:08:22 0.0002090914 945.0 (m) PAYLOAD
SL-16 R/B LEO 2024-08-04 13:55:39 0.0002712284 254.0 (m) ROCKET BODY

Associated space launch

Chinese polar orbiting meteorological satellite

FENGYUN 1C DEB was lifted into orbit during the mission ‘Long March 4B | Feng Yun 1C’, on board a Long March 4B space rocket.

The launch took place on May 10, 1999, 1:33 a.m. from Launch Complex 7.

For more information about the launch, click the button.

Launch to space Long March 4B | Feng Yun 1C
Long March 4B | Feng Yun 1C

Agency: N/A

Status: Launch Successful

Launch date: May 10, 1999, 1:33 a.m. UTC

Rocket: Long March 4B

Launch pad: Launch Complex 7

Location: Taiyuan Satellite Launch Center, People's Republic of China

...

Latest news about this satellite

There are no fresh news available about this satellite. Check back as we update our databases every day.


Newsletter sign-up

Weekly statistics, charts and insights to help you stay on top of the space industry.